Location: Brad
(46.1333°N, 22.7833°E)
Time: 06:02:18
(UTC+00:00)

Cosmos 2322 Rocket - Pass Details

Date: 03 February 2023
Orbit: 831 x 852 km, 71.0° (Epoch: 29 March)

Event Time Altitude Azimuth Distance (km) Brightness Sun altitude
Rises 16:32:17 0° 192° (SSW) 3,361 5.7 -10.0°
Reaches altitude 10° 16:34:44 10° 188° (S) 2,431 4.9 -10.4°
Maximum altitude 16:40:11 58° 111° (ESE) 965 2.2 -11.4°
Drops below altitude 10° 16:45:41 10° 33° (NNE) 2,451 4.2 -12.3°
Enters shadow 16:47:02 - 31° (NNE) 2,964 4.6 -12.5°
